This is the latest recevied weather packets stored in our database for station/object KG7MRB. If no packets are shown the sender has not sent any weather packets the latest 10 day(s).
| Time | Temp. | Humidity | Pressure | Rain* | Wind** | Luminosity | Snow |
|---|---|---|---|---|---|---|---|
| 1778039818 | 14.44° C | 86% | 1032.6 hPa | 0 mm | - | 0 W/m² | - |
| 1778039515 | 15° C | 85% | 1032.5 hPa | 0 mm | - | 0 W/m² | - |
| 1778039212 | 15° C | 86% | 1032.6 hPa | 0 mm | - | 0 W/m² | - |
| 1778038909 | 15° C | 85% | 1032.4 hPa | 0 mm | - | 1 W/m² | - |
| 1778038606 | 15° C | 83% | 1032.4 hPa | 0 mm | - | 2 W/m² | - |
| 1778038303 | 15° C | 83% | 1032.5 hPa | 0 mm | - | 3 W/m² | - |
| 1778038000 | 15.56° C | 83% | 1032.3 hPa | 0 mm | - | 4 W/m² | - |
| 1778037697 | 15.56° C | 83% | 1032.2 hPa | 0 mm | - | 6 W/m² | - |
| 1778037394 | 15.56° C | 82% | 1032.2 hPa | 0 mm | - | 8 W/m² | - |
| 1778037091 | 16.11° C | 81% | 1032.3 hPa | 0 mm | - | 11 W/m² | - |
| 1778036790 | 16.11° C | 81% | 1032.1 hPa | 0 mm | - | 13 W/m² | - |
| 1778036486 | 16.11° C | 81% | 1032.3 hPa | 0 mm | - | 15 W/m² | - |
| 1778036183 | 16.67° C | 81% | 1032 hPa | 0 mm | - | 18 W/m² | - |
| 1778035879 | 16.67° C | 80% | 1032.1 hPa | 0 mm | - | 20 W/m² | - |
| 1778035577 | 16.67° C | 80% | 1032.2 hPa | 0 mm | - | 22 W/m² | - |
| 1778035273 | 16.67° C | 80% | 1032 hPa | 0 mm | - | 24 W/m² | - |
| 1778034969 | 17.22° C | 79% | 1032 hPa | 0 mm | - | 26 W/m² | - |
| 1778034667 | 17.22° C | 79% | 1032 hPa | 0 mm | - | 28 W/m² | - |
| 1778034364 | 17.22° C | 79% | 1032 hPa | 0 mm | - | 31 W/m² | - |
| 1778034061 | 17.22° C | 78% | 1032.1 hPa | 0 mm | - | 32 W/m² | - |
| 1778033759 | 17.78° C | 78% | 1032 hPa | 0 mm | - | 34 W/m² | - |
| 1778033456 | 17.78° C | 77% | 1032 hPa | 0 mm | - | 35 W/m² | - |
| 1778033153 | 17.78° C | 76% | 1032 hPa | 0 mm | - | 42 W/m² | - |
| 1778032850 | 17.78° C | 76% | 1031.9 hPa | 0 mm | - | 41 W/m² | - |
| 1778032548 | 18.33° C | 76% | 1032 hPa | 0 mm | - | 45 W/m² | - |
* Rain latest hour (hover to see other rain measurements)
** Current wind speed in m/s (hover to see current wind gust speed)